Notices

What's New in latest Release from April 7th, 2021:

- Updated Glossary, including Speed of Maximum Gust, and Total Hourly Precipitation

- Updated national and regional climate services offices contacts and prices information

- Addition of station inventory lists for 1981-2010, 1971-2000, and 1961-1990 Normals.

If you haven't already, please take our survey and provide feedback about our website: https://eccc.sondage-survey.ca/f/LanguageSelection.aspx?s=442ca660-fcf1-47c0-95a9-59707d6fd709

Hourly Data Report for March 17, 2021

MIRAMICHI RCS
NEW BRUNSWICK
Current Station Operator: ECCC - MSC

47°00'34.000" N
65°27'54.000" W
33.00 m
8100989
71744
ACQ

Download Data

Hourly Data (March 2021)
Hourly Data Report for March 17, 2021
TIME
LST
Temp Definition
°C
Dew Point Definition
°C
Rel Hum Definition
%
Precip. Amount Definition
mm

Wind Dir Definition
10's deg

Wind Spd Definition
km/h
Visibility Definition
km
Stn Press Definition
kPa
Hmdx Definition


Wind Chill Definition


Weather Definition


00:00 -16.8 -22.0 64 LegendMM 10 6   101.43   -21 LegendNANA
01:00 -14.6 -19.2 68 LegendMM 27 6   101.45   -19 LegendNANA
02:00 -15.4 -20.0 68 LegendMM 23 3   101.43   -18 LegendNANA
03:00 -15.4 -19.7 70 LegendMM 20 3   101.31   -18 LegendNANA
04:00 -15.6 -20.6 65 LegendMM 23 2   101.24   -17 LegendNANA
05:00 -15.3 -19.9 68 LegendMM 23 5   101.19   -19 LegendNANA
06:00 -15.4 -19.8 69 LegendMM 27 7   101.18   -20 LegendNANA
07:00 -14.3 -19.2 66 LegendMM 28 7   101.18   -19 LegendNANA
08:00 -11.4 -18.2 57 LegendMM 28 5   101.20   -15 LegendNANA
09:00 -6.9 -17.1 44 LegendMM 24 9   101.20   -11 LegendNANA
10:00 -4.2 -14.6 44 LegendMM 22 12   101.19   -9 LegendNANA
11:00 0.0 -13.4 36 LegendMM 23 14   101.15   -4 LegendNANA
12:00 3.8 -12.7 29 LegendMM 23 15   101.10     LegendNANA
13:00 6.0 -11.6 27 LegendMM 22 15   101.02     LegendNANA
14:00 6.4 -8.8 33 LegendMM 23 21   100.95     LegendNANA
15:00 7.3 -6.9 36 LegendMM 24 19   100.94     LegendNANA
16:00 8.9 -7.6 30 LegendMM 26 16   100.95     LegendNANA
17:00 8.8 -6.9 32 LegendMM 27 16   100.98     LegendNANA
18:00 7.8 -6.7 35 LegendMM 25 9   101.01     LegendNANA
19:00 5.4 -6.9 41 LegendMM 25 9   101.05     LegendNANA
20:00 2.9 -7.1 48 LegendMM 28 8   101.16     LegendNANA
21:00 2.7 -6.6 50 LegendMM 26 5   101.20     LegendNANA
22:00 0.1 -6.4 62 LegendMM 21 8   101.21     LegendNANA
23:00 -0.6 -5.7 68 LegendMM 20 2   101.23   -1 LegendNANA

Notes on Data Quality.

Legend

  • E = Estimated
  • M = Missing
  • NA = Not Available*
  • [empty] = Indicates an unobserved value
Date modified: